* Astronomy

Members Login
Username 
 
Password 
    Remember Me  
Post Info TOPIC: Asteroid 2011 ED12


L

Posts: 131433
Date:
RE: Asteroid 2011 ED12
Permalink  
 


Object
Name
Close
Approach
Date
Miss
Distance
(AU)
Miss
Distance
(LD)
Estimated
Diameter
H
(mag)
Relative
Velocity
(km/s)
(2011 ED12) 2011-Feb-28 0.0102 4.0 12 m - 28 m 26.7 3.23


__________________


L

Posts: 131433
Date:
Permalink  
 

Orbital elements:
2011 ED12 Earth MOID = 0.0104 AU
Epoch 2011 Feb. 8.0 TT = JDT 2455600.5 MPC
M 23.69999 (2000.0) P Q
n 0.85880859 Peri. 115.00022 -0.28254594 -0.95923015
a 1.0961546 Node 351.40378 +0.86306481 -0.25114456
e 0.1352399 Incl. 2.58130 +0.41867281 -0.12962999
P 1.15 H 26.7 G 0.15 U 7

MPEC 2011 - E32


__________________
Page 1 of 1  sorted by
 
Quick Reply

Please log in to post quick replies.



Create your own FREE Forum
Report Abuse
Powered by ActiveBoard